OKEAN-0
1 25860U 99039A 12201.90753524 .00000398 00000-0 67741-4 0 07023
2 25860 097.9387 163.8868 0001595 096.3730 263.7660 14.74245218699398
NOAA-16
1 26536U 00055A 12201.68663361 .00000256 00000-0 16254-3 0 08260
2 26536 099.0911 244.3075 0010338 357.8181 002.2948 14.12760478609624
NOAA-17
1 27453U 02032A 12201.75568078 .00000244 00000-0 12293-3 0 07752
2 27453 098.3354 227.1455 0012647 063.9805 296.2666 14.24460445523395
NOAA-18
1 28654U 05018A 12201.81106137 .00000158 00000-0 11147-3 0 02569
2 28654 099.0467 160.1731 0015201 064.6683 295.6083 14.11674493369161
NOAA-19
1 33591U 09005A 12201.82620462 .00000260 00000-0 16821-3 0 04467
2 33591 098.8641 141.2118 0013294 291.4108 068.5673 14.11362075177618
HUBBLE
1 20580U 90037B 12201.67029279 .00001482 00000-0 96176-4 0 373
2 20580 028.4717 290.9586 0003310 047.7488 312.3240 15.02635383 19629
ISS
1 25544U 98067A 12202.86303361 .00007823 00000-0 12315-3 0 9688
2 25544 051.6441 314.0699 0000553 260.8060 193.0038 15.54606717783251
CO-58
1 28895U 05043F 12202.64954313 .00000330 00000-0 76756-4 0 2305
2 28895 097.9093 067.4444 0018680 049.2776 311.0013 14.60680934358543
FALCON
1 30776U 07006E 12202.89604595 .00002584 00000-0 16819-3 0 3945
2 30776 035.4308 070.9142 0003226 298.5216 061.5177 15.07781171295345
MAST
1 31126U 07012K 12201.97537560 .00000566 00000-0 13622-3 0 05171
2 31126 097.8745 211.1577 0094305 009.1920 351.0980 14.54203829279036
CAPE1
1 31130U 07012P 12202.58965702 .00000520 00000-0 12795-3 0 5212
2 31130 097.8791 208.0977 0102054 020.7265 339.8028 14.52995643278624
COMPASS
1 32787U 08021E 12201.63468934 .00001765 00000-0 21741-3 0 03606
2 32787 097.7986 262.2515 0014197 318.1079 041.8948 14.84129881228629
AAUSAT2
1 32788U 08021F 12202.74307427 .00001660 00000-0 20325-3 0 3510
2 32788 097.8009 263.7348 0013365 314.3631 045.6451 14.84464490228815
DO-64
1 32789U 08021G 12201.74591947 .00003690 00000-0 42733-3 0 03682
2 32789 097.8111 264.9062 0013538 313.5668 046.4374 14.86040519228715
CO-66
1 32791U 08021J 12201.63729600 .00001313 00000-0 16566-3 0 03508
2 32791 097.7992 261.9686 0014743 318.1545 041.8422 14.83523491228554
RS-30
1 32953U 08025A 12202.69241536 .00000010 00000-0 00000 0 0 9787
2 32953 082.5024 274.3053 0017730 231.8829 128.0659 12.43025705188726
TACSAT-3
1 35001U 09028A 12121.72616188 .15204951 73582-5 42606-3 0 00016
2 35001 040.4259 351.8840 0007146 275.2650 085.0693 16.45157000166990
PHARMSAT
1 35002U 09028B 12202.45849120 .00216816 25063-4 46790-3 0 9981
2 35002 040.4506 212.4054 0008134 137.6601 222.4866 15.97548690179628
METEOR-M
1 35865U 09049A 12202.78604452 -.00000032 00000-0 50929-5 0 6085
2 35865 098.6527 256.4783 0002083 337.0049 023.1033 14.21865748147370
RS-38
1 35869U 09049E 12202.73183747 .00000038 00000-0 36799-4 0 6165
2 35869 098.6479 256.4151 0004164 326.1923 033.8987 14.22079280147387
JUGNU
1 37839U 11058B 12201.18215463 .00000620 00000-0 19019-3 0 01905
2 37839 019.9616 164.3996 0018685 213.9934 145.9273 14.12067822039771
SRMSAT
1 37841U 11058D 12201.20948642 .00000264 00000-0 00000-0 0 01915
2 37841 019.9720 169.7497 0012278 183.0207 177.0151 14.10149976039722
RAX-2
1 37853U 11061D 12202.84965708 .00001301 00000-0 11287-3 0 2359
2 37853 101.7119 258.3665 0246310 254.8248 102.5566 14.80220244 39376
AUBIESAT
1 37854U 11061E 12201.84944470 .00002778 00000-0 22471-3 0 02448
2 37854 101.7104 257.2007 0246774 256.6686 100.6849 14.80618884039227
HRBE
1 37855U 11061F 12201.86639046 .00002438 00000-0 19906-3 0 02397
2 37855 101.7137 257.1720 0247351 257.0429 100.3016 14.80464264039221
RS-39
1 38051U 11062C 12202.89467069 .00006939 00000-0 28856-3 0 5325
2 38051 051.6351 359.1587 0014876 155.4714 000.3815 15.24794552 27113
E-STAR
1 38079U 12006C 12202.51230909 .00023081 00000-0 55571-3 0 3659
2 38079 069.4863 239.4126 0736428 205.9120 150.3066 14.16908180 22307
GOLIAT
1 38085U 12006J 12202.52724245 .00023495 00000-0 56992-3 0 3363
2 38085 069.4929 239.7500 0740400 206.2396 149.9420 14.15906229 22297
HORYU-2
1 38340U 12025D 12202.38380381 .00000585 00000-0 10591-3 0 559
2 38340 098.1761 142.1895 0011936 222.8757 137.1475 14.70045877 9353
